Weather History for Jackson, MS

Change the Weather History Date:

Monday, October 29, 2012

  Actual Average Record
Temperature  
Mean Temperature 50 °F 61 °F  
Max Temperature 60 °F 73 °F 90 °F (1927)
Min Temperature 40 °F 49 °F 27 °F (1910)
Degree Days  
Heating Degree Days 15 6  
Month to date heating degree days 89 88  
Since 1 July heating degree days 90 95  
Cooling Degree Days 0 2  
Month to date cooling degree days 73 102  
Year to date cooling degree days 2510 2228  
Moisture  
Dew Point 31 °F    
Average Humidity 53    
Maximum Humidity 79    
Minimum Humidity 27    
Precipitation  
Precipitation 0.00 in 0.13 in 3.34 in (1918)
Month to date precipitation 1.05 3.67  
Year to date precipitation 57.88 43.98  
Sea Level Pressure  
Sea Level Pressure 30.16 in    
Wind  
Wind Speed 10 mph (NNW)    
Max Wind Speed 21 mph    
Max Gust Speed 28 mph    
Visibility 10 miles    
Events      
T = Trace of Precipitation, MM = Missing Value Source: NWS Daily Summary

Daily Weather History Graph

Daily Weather History Graph

Search for Another Location

Airport:

Trip Planner

Search our weather history database for the weather conditions in past years. The results will help you decide how hot, cold, wet, or windy it might be!

Date:

Astronomy

Oct. 29, 2012 Rise Set
Actual Time 7:15 AM CDT 6:12 PM CDT
Civil Twilight 6:50 AM CDT 6:37 PM CDT
Nautical Twilight 6:21 AM CDT 7:06 PM CDT
Astronomical Twilight 5:52 AM CDT 7:34 PM CDT
Moon 6:06 PM CDT (10/29) 7:04 AM CDT (10/29)
Length of Visible Light 11h 47m
Length of Day
10h 56m
Full, 100% of the Moon is Illuminated
Oct 29
Full
Oct 29
Full
Nov 6
Last Quarter
Nov 13
New
Nov 20
First Quarter

Hourly Weather History & Observations

Time (CDT) Temp. Windchill Dew Point Humidity Pressure Visibility Wind Dir Wind Speed Gust Speed Precip Events Conditions
12:54 AM 45.0 °F 39.7 °F 35.1 °F 68% 30.18 in 10.0 mi North 10.4 mph - N/A   Clear
1:54 AM 44.1 °F 39.0 °F 34.0 °F 68% 30.18 in 10.0 mi North 9.2 mph - N/A   Clear
2:54 AM 44.1 °F 39.5 °F 34.0 °F 68% 30.17 in 10.0 mi NNW 8.1 mph - N/A   Clear
3:54 AM 43.0 °F 37.7 °F 34.0 °F 71% 30.17 in 10.0 mi NNW 9.2 mph - N/A   Clear
4:54 AM 42.1 °F 37.1 °F 34.0 °F 73% 30.18 in 10.0 mi NNW 8.1 mph - N/A   Clear
5:54 AM 39.9 °F 35.1 °F 34.0 °F 79% 30.18 in 10.0 mi NNW 6.9 mph - N/A   Clear
6:54 AM 39.9 °F 35.8 °F 34.0 °F 79% 30.19 in 10.0 mi NNW 5.8 mph - N/A   Clear
7:54 AM 42.1 °F 37.1 °F 34.0 °F 73% 30.22 in 10.0 mi North 8.1 mph - N/A   Clear
8:54 AM 46.9 °F - 34.0 °F 61% 30.22 in 10.0 mi North 11.5 mph - N/A   Clear
9:54 AM 50.0 °F - 32.0 °F 50% 30.23 in 10.0 mi NNE 16.1 mph 20.7 mph N/A   Clear
10:54 AM 53.1 °F - 30.0 °F 41% 30.22 in 10.0 mi NNE 11.5 mph 20.7 mph N/A   Clear
12:54 PM 57.0 °F - 26.1 °F 30% 30.19 in 10.0 mi North 17.3 mph 24.2 mph N/A   Clear
1:54 PM 59.0 °F - 27.0 °F 29% 30.17 in 10.0 mi NNW 12.7 mph - N/A   Clear
2:54 PM 59.0 °F - 26.1 °F 28% 30.13 in 10.0 mi North 17.3 mph 23.0 mph N/A   Clear
3:54 PM 60.1 °F - 26.1 °F 27% 30.12 in 10.0 mi North 15.0 mph 23.0 mph N/A   Clear
4:54 PM 57.9 °F - 28.0 °F 32% 30.11 in 10.0 mi NNW 12.7 mph - N/A   Clear
5:54 PM 55.0 °F - 27.0 °F 34% 30.10 in 10.0 mi NW 12.7 mph 19.6 mph N/A   Clear
6:54 PM 51.1 °F - 28.9 °F 43% 30.11 in 10.0 mi NNW 6.9 mph - N/A   Clear
7:54 PM 50.0 °F - 30.0 °F 46% 30.12 in 10.0 mi NW 8.1 mph - N/A   Clear
8:54 PM 48.0 °F - 30.9 °F 52% 30.12 in 10.0 mi NW 5.8 mph - N/A   Clear
9:54 PM 48.0 °F - 30.9 °F 52% 30.12 in 10.0 mi NNW 6.9 mph - N/A   Clear
10:54 PM 46.9 °F - 30.9 °F 54% 30.12 in 10.0 mi NNW 6.9 mph - N/A   Clear
11:54 PM 45.0 °F 41.2 °F 30.9 °F 58% 30.10 in 10.0 mi NW 6.9 mph - N/A   Clear